This demonstration page uses our WeatherBlox Daily Observations layout. Learn more.

Left ArrowRight Arrow

44.8408, -93.29828

Hourly Observations for April 9, 2017

Temp ( °F °C ) Dew Point ( °F °C ) Humidity (%) Winds ( mph kmh ) Pressure ( in mb ) Visibility ( mi km ) Precip ( " mm )
12:53 am 00:53 Mostly Cloudy 65 18.3 49 9.4 56 56 WSW 10 17 29.53 1000 10 16 0.00 0.00
1:53 am 01:53 Mostly Cloudy 62 16.7 48 8.9 60 60 W 7 11 29.54 1000 10 16 0.00 0.00
2:53 am 02:53 Mostly Cloudy 60 15.6 47 8.3 62 62 W 7 11 29.55 1001 10 16 0.00 0.00
3:53 am 03:53 Mostly Cloudy 57 13.9 45 7.2 64 64 Calm 29.54 1000 10 16 0.00 0.00
4:53 am 04:53 Cloudy 57 13.9 45 7.2 64 64 SW 6 9 29.57 1002 10 16 0.00 0.00
5:53 am 05:53 Cloudy 55 12.8 45 7.2 69 69 NW 6 9 29.57 1001 10 16 0.00 0.00
6:53 am 06:53 Cloudy 55 12.8 44 6.7 67 67 NNW 7 11 29.59 1002 10 16 0.00 0.00
7:53 am 07:53 Mostly Cloudy 54 12.2 44 6.7 69 69 NNW 8 13 29.60 1002 10 16 0.00 0.00
8:53 am 08:53 Mostly Cloudy 59 15 44 6.7 58 58 VRB 7 11 29.61 1003 10 16 0.00 0.00
9:53 am 09:53 Mostly Cloudy 61 16.1 44 6.7 54 54 E 7 11 29.60 1002 10 16 0.00 0.00
10:53 am 10:53 Mostly Cloudy 65 18.3 45 7.2 49 49 NE 10 17 29.57 1001 10 16 0.00 0.00
11:53 am 11:53 Mostly Cloudy 71 21.7 46 7.8 41 41 ENE 8 13 29.55 1001 10 16 0.00 0.00
12:53 pm 12:53 Cloudy 71 21.7 46 7.8 41 41 NNE 9 15 29.55 1001 10 16 0.00 0.00
1:53 pm 13:53 Cloudy 72 22.2 46 7.8 40 40 NE 9 15 29.54 1000 10 16 0.00 0.00
2:53 pm 14:53 Cloudy 72 22.2 45 7.2 38 38 NNE 15 24 29.51 999 10 16 0.00 0.00
3:53 pm 15:53 Cloudy 68 20 44 6.7 42 42 NNE 14 22 29.49 999 10 16 0.00 0.00
4:21 pm 16:21 Cloudy with Thunderstorms 65 18.3 47 8.3 52 52 VRB 7 11 29.50 999 10 16 0.02 0.51
4:41 pm 16:41 Cloudy 66 18.9 49 9.4 54 54 N 9 15 29.50 999 10 16 0.02 0.51
4:53 pm 16:53 Cloudy 65 18.3 50 10 59 59 NNE 9 15 29.52 1000 10 16 0.02 0.51
5:53 pm 17:53 Cloudy 64 17.8 47 8.3 54 54 NNE 14 22 29.54 1000 10 16 0.00 0.00
6:53 pm 18:53 Cloudy 62 16.7 47 8.3 58 58 NNE 16 26 29.52 1000 10 16 0.00 0.00
7:53 pm 19:53 Cloudy 61 16.1 47 8.3 60 60 NNE 16 26 29.54 1000 10 16 0.00 0.03
8:53 pm 20:53 Cloudy 59 15 46 7.8 62 62 N 16 26 29.57 1001 10 16 0.00 0.00
9:53 pm 21:53 Cloudy 57 13.9 44 6.7 62 62 N 18 30 29.60 1002 10 16 0.00 0.00
10:53 pm 22:53 Cloudy 56 13.3 43 6.1 62 62 NNE 21 33 29.60 1002 10 16 0.00 0.00
11:53 pm 23:53 Mostly Cloudy 54 12.2 42 5.6 64 64 NNE 17 28 29.61 1003 10 16 0.00 0.00

Powered by AerisWeather